Temperature
20 20 19 19 19 18 18 18 18 18 18 17 17 17 17 16 16 16 16 16 16 16 16 15 15 15 15 15 15 15 15 15 15 15 15 15 15 15 15 15 15 15 15
20 20 19 19 19 18 18 18 17 17 17 17 17 17 16 16 16 16 16 16 16 15 15 15 15 15 15 15 15 15 15 15 15 14 15 15 15 15 15 15 15 15 15
20 19 19 19 18 18 18 17 17 17 17 17 17 16 16 16 16 16 16 15 15 15 15 15 15 15 15 15 14 14 14 14 14 14 14 14 14 14 14 14 14 14 14
19 19 19 18 18 18 17 17 17 17 17 17 16 16 16 16 15 15 15 15 15 15 15 15 14 14 14 14 14 14 14 14 14 14 14 14 14 14 14 14 14 14 14
19 19 19 18 18 17 17 17 17 17 17 16 16 16 16 15 15 15 15 15 14 14 14 14 14 14 14 14 14 14 14 14 14 13 13 13 13 13 13 13 13 13 14
19 19 18 18 17 17 17 17 17 17 16 16 16 16 16 15 15 15 15 15 14 14 14 14 14 14 14 14 14 13 13 13 13 13 13 13 13 13 13 13 13 13 13
19 18 18 17 17 17 17 17 17 16 16 16 16 16 15 15 15 15 15 14 14 14 14 14 14 13 13 13 13 13 13 13 13 13 13 13 13 13 13 13 13 13 13
18 18 17 17 17 17 16 16 16 16 16 15 15 15 15 15 15 14 14 14 14 14 13 13 13 13 13 13 13 13 13 13 12 12 12 12 12 12 12 12 12 12 12
18 17 17 17 17 16 16 16 16 16 15 15 15 15 15 15 14 14 14 14 13 13 13 13 13 13 13 13 12 12 12 12 12 12 12 12 12 12 12 12 12 12 12
18 17 17 17 16 16 16 16 15 15 15 15 14 14 14 14 14 14 13 13 13 13 13 13 12 12 12 12 12 12 12 12 12 12 12 12 12 12 12 12 12 11 11
17 17 17 16 16 16 16 15 15 15 15 14 14 14 14 14 13 13 13 13 13 12 12 12 12 12 12 12 12 12 12 12 12 12 12 12 12 12 12 12 11 11 11
17 17 16 16 16 15 15 15 15 15 14 14 14 14 13 13 13 13 13 12 12 12 12 12 12 12 12 12 12 12 12 12 11 11 11 11 11 11 11 11 11 11 11
16 16 16 16 15 15 15 15 15 14 14 14 13 13 13 13 13 13 12 12 12 12 12 12 12 11 11 11 11 11 11 11 11 11 11 11 11 11 11 11 11 11 11
16 16 15 15 15 15 14 14 14 14 14 13 13 13 13 13 12 12 12 12 12 12 11 11 11 11 11 11 11 11 11 11 11 11 11 11 11 10 10 10 10 10 10
15 15 15 15 14 14 14 14 14 14 13 13 13 13 13 13 12 12 12 12 12 11 11 11 11 11 11 11 11 11 11 11 10 10 10 10 10 10 10 10 10 10 10
15 14 14 14 14 14 14 14 13 13 13 13 13 12 12 12 12 12 12 11 11 11 11 11 11 11 11 10 10 10 10 10 10 10 10 10 10 10 10 10 10 9 9
14 14 14 14 13 13 13 13 13 13 13 13 12 12 12 12 12 12 11 11 11 11 11 11 10 10 10 10 10 10 10 10 10 10 10 10 10 10 10 10 9 9 9
13 13 13 13 13 13 13 13 13 13 13 12 12 12 12 12 12 11 11 11 11 11 10 10 10 10 10 10 10 10 10 10 10 10 10 10 10 9 9 9 9 9 9
13 13 13 13 13 13 13 13 12 12 12 12 12 12 12 12 11 11 11 11 11 11 10 10 10 10 10 10 10 9 9 9 9 10 10 10 9 9 9 9 9 9 9
13 13 13 13 12 12 12 12 12 12 12 12 12 12 12 11 11 11 11 11 11 11 10 10 10 10 10 9 9 9 9 9 9 9 9 9 9 9 9 9 9 9 9
12 12 12 12 12 12 12 12 12 12 12 12 12 11 11 11 11 11 11 11 10 10 10 10 10 10 9 9 9 9 9 9 9 9 9 9 9 9 8 8 8 8 8
12 12 12 12 12 12 12 12 11 12 11 11 11 11 11 11 11 11 10 10 10 10 10 10 10 10 9 9 9 9 9 9 9 9 8 8 8 8 8 8 8 8 8
11 11 11 11 11 11 11 11 11 11 11 11 11 11 11 11 10 10 10 10 10 10 10 10 9 9 9 9 9 8 8 8 8 8 8 8 8 8 8 8 8 8 7
11 11 11 11 11 11 11 11 11 11 11 11 11 10 10 10 10 10 10 10 10 10 9 9 9 9 9 9 8 8 8 8 8 8 8 8 8 8 8 7 7 7 7
11 11 11 11 11 10 10 10 10 10 10 10 10 10 10 10 10 10 10 9 9 9 9 9 9 9 8 8 8 8 8 8 8 8 8 7 7 7 7 7 7 7 7
10 10 10 10 10 10 10 10 10 10 10 10 10 10 10 10 9 9 9 9 9 9 9 9 8 8 8 8 8 8 8 7 7 7 7 7 7 7 7 7 7 7 7
Wind_Speed
7 7 6 5 5 5 5 5 5 4 4 4 4 3 2 2 1 1 1 1 0 1 1 1 2 1 1 1 1 0 1 2 3 4 2 2 1 2 2 2 3 3 5
7 7 6 6 5 5 4 4 4 4 4 4 4 4 3 2 2 2 2 1 1 1 2 1 2 1 1 1 1 1 1 2 3 3 3 2 2 2 2 2 2 2 4
6 7 6 6 6 5 5 4 4 4 3 3 3 3 3 3 3 2 2 2 2 2 2 2 2 1 2 2 2 2 2 2 2 2 2 2 2 2 2 2 2 2 3
7 7 6 6 6 6 5 4 4 4 3 3 3 3 3 3 3 2 2 2 1 1 1 1 2 2 2 2 2 2 2 1 1 1 2 2 2 2 1 2 3 2 3
7 6 6 5 5 5 4 4 4 4 4 3 3 2 2 3 3 3 3 3 2 1 1 1 2 2 2 2 1 2 2 2 2 1 2 1 2 1 2 2 2 3 3
7 6 5 4 4 5 5 4 4 3 3 3 3 3 3 3 3 4 4 3 3 2 2 2 3 2 3 3 3 3 3 3 3 3 2 3 4 3 2 2 2 2 3
6 5 5 5 5 4 5 4 4 4 4 4 4 3 3 4 4 4 4 4 3 3 3 2 2 2 2 2 3 3 3 3 4 4 4 5 5 5 3 3 3 3 4
5 4 4 5 5 4 4 4 4 3 4 4 4 4 3 3 3 3 3 2 2 3 3 3 3 3 2 1 2 2 3 3 4 3 4 6 5 5 5 4 4 3 3
4 4 5 5 5 5 4 5 4 3 3 3 3 3 3 3 3 3 2 2 2 2 3 3 3 3 3 1 1 2 3 4 4 4 4 4 5 5 3 1 1 1 3
3 4 4 5 5 5 5 4 3 3 3 2 2 2 3 3 2 3 3 2 2 2 2 3 3 3 3 2 2 2 3 5 4 4 4 4 3 4 4 3 4 3 3
2 1 2 3 4 5 4 3 3 3 3 2 2 2 3 3 3 3 3 2 3 2 2 3 4 5 5 5 4 5 7 6 3 3 2 3 3 3 3 2 3 4 4
1 1 2 2 3 3 3 2 3 3 3 3 3 2 2 3 3 3 4 4 3 3 4 4 5 7 6 6 5 6 6 4 1 1 1 2 2 3 3 3 3 3 4
1 0 1 2 2 2 3 3 3 3 3 3 3 3 3 3 3 5 5 5 5 3 4 6 6 6 5 4 5 5 3 1 1 1 2 3 3 3 2 2 2 2 2
1 1 1 1 1 1 2 3 3 4 4 3 4 4 3 3 3 3 3 3 4 3 3 4 5 5 3 3 3 2 2 2 3 3 3 3 2 1 1 1 1 2 2
1 1 1 1 2 2 1 2 3 4 5 5 5 5 4 4 6 6 4 3 3 3 1 1 1 2 2 2 2 2 2 1 2 3 3 2 2 2 2 2 1 1 1
1 1 1 1 1 2 1 1 3 3 4 6 6 5 5 6 6 5 5 5 4 4 3 1 2 2 2 3 3 3 2 2 3 3 3 3 3 3 3 2 1 2 2
2 2 2 2 2 2 2 2 2 3 3 3 5 5 5 5 5 5 5 4 3 5 2 2 3 3 3 3 3 3 3 4 3 3 3 3 3 3 3 3 2 2 3
2 3 2 3 3 3 2 2 3 3 2 3 3 4 5 5 5 5 4 3 1 1 3 3 4 4 4 4 4 3 4 3 3 3 3 3 3 3 3 3 3 3 3
2 2 2 2 2 2 2 2 2 3 3 2 2 2 3 3 3 3 3 3 3 3 4 4 4 4 4 4 4 4 4 4 4 3 3 3 3 3 3 3 3 4 3
2 2 2 1 1 1 2 2 2 3 3 3 3 3 2 2 1 2 2 3 3 4 4 5 4 4 4 3 3 3 3 3 3 3 3 3 3 3 3 3 3 3 3
2 2 2 1 2 2 2 2 2 3 3 3 4 4 5 4 4 4 4 4 4 5 5 4 4 4 4 3 3 3 3 3 3 3 3 3 3 3 3 3 3 3 3
2 2 2 2 2 2 2 2 2 3 3 3 3 3 5 3 3 4 4 4 5 5 4 4 4 4 4 4 3 3 3 3 3 3 3 3 4 4 3 3 2 3 3
2 2 2 2 2 2 2 2 2 3 3 4 3 3 3 3 4 4 4 4 4 4 4 4 4 3 3 3 3 3 3 4 4 4 4 4 3 3 3 3 3 3 3
2 2 2 2 2 2 2 3 3 4 4 4 4 3 4 4 4 4 4 3 3 3 3 3 4 4 5 4 3 3 3 3 3 3 4 4 4 3 3 3 3 4 4
2 2 2 2 2 2 3 3 4 4 4 4 4 4 4 3 3 3 3 3 3 2 2 3 3 3 4 5 3 3 3 3 3 3 3 3 3 3 3 3 3 3 3
3 3 3 3 3 3 3 3 3 3 3 3 3 4 4 3 3 3 3 2 2 2 2 2 3 4 4 4 5 4 3 2 3 3 3 2 3 3 3 3 4 3 4
Wind_Direction
167 166 165 166 168 164 169 176 179 179 175 174 175 171 169 181 181 165 179 152 145 304 302 278 279 284 319 311 299 240 196 178 221 270 277 284 290 296 306 293 277 269 267
165 161 169 162 159 162 177 182 175 178 181 179 176 176 185 191 199 196 209 196 191 245 272 274 277 294 320 309 292 261 242 210 200 245 272 286 284 279 287 279 284 292 278
156 162 167 167 166 171 179 188 176 173 178 179 175 184 195 196 196 197 189 194 206 226 246 258 278 263 279 270 247 245 248 252 216 213 253 269 277 290 310 305 309 300 299
158 161 170 178 178 180 178 183 184 177 174 181 185 186 192 189 181 185 182 184 191 225 239 236 247 236 250 258 243 223 221 234 231 218 252 275 275 281 304 288 307 308 295
158 163 175 179 176 175 175 177 186 183 177 176 176 178 183 189 194 187 189 182 175 216 274 267 258 268 288 269 251 222 206 212 212 210 237 262 279 293 283 267 273 290 291
162 174 176 170 170 178 183 180 183 187 186 181 189 195 200 212 201 194 182 185 190 202 238 272 278 292 312 313 280 233 207 207 209 209 220 228 243 242 249 258 257 285 291
161 168 168 170 175 185 189 185 192 198 196 201 206 198 212 226 202 187 186 183 197 215 232 251 273 298 314 307 300 289 273 244 208 197 210 229 230 229 223 245 245 241 254
148 162 173 178 187 190 187 195 207 202 201 207 208 207 208 224 208 192 184 193 212 229 234 229 234 260 281 314 322 324 304 281 247 220 218 235 236 229 214 218 233 253 274
160 182 192 190 191 192 197 204 210 199 204 210 206 198 192 220 206 186 165 185 220 252 249 240 236 243 273 318 353 307 309 301 292 286 269 268 267 257 242 219 276 260 287
188 200 201 196 194 200 203 204 203 191 199 193 206 202 191 211 204 183 176 184 217 257 271 262 259 252 259 258 224 237 263 272 289 304 307 310 296 291 273 218 212 220 242
213 198 208 207 203 203 197 191 180 175 170 177 193 209 204 209 210 197 183 183 205 234 255 273 274 270 266 266 250 230 236 245 252 256 278 292 296 290 281 253 212 204 217
182 206 223 217 209 195 179 179 176 174 177 195 200 219 234 226 219 217 206 207 207 212 242 257 270 276 271 269 256 253 255 249 227 236 272 287 287 284 280 277 259 232 225
112 222 227 214 204 189 183 184 184 181 184 204 204 216 238 241 237 230 222 225 229 225 241 256 274 286 285 278 276 279 273 217 195 225 249 254 253 260 276 296 313 312 296
137 276 242 201 209 206 198 189 188 194 199 209 211 219 233 241 239 237 239 240 242 248 263 276 285 292 299 290 300 296 253 215 200 215 235 250 261 274 283 279 291 312 321
184 232 225 205 200 199 218 218 212 214 205 204 214 208 209 232 240 227 216 223 225 227 231 314 328 316 308 299 294 288 269 245 226 236 237 251 265 271 276 275 264 266 274
203 246 239 215 213 200 198 310 304 257 229 217 214 208 223 228 227 229 236 236 226 192 157 214 249 258 254 249 259 271 263 246 237 232 238 240 244 250 265 274 243 239 259
226 240 238 219 209 217 209 205 281 316 295 247 229 217 216 224 219 215 218 222 205 167 181 235 245 246 251 247 245 246 248 248 236 230 239 243 243 244 245 251 243 244 258
252 246 231 221 214 217 224 224 216 223 262 289 273 236 222 222 216 209 198 151 165 188 218 236 246 247 247 247 251 250 250 251 242 236 240 246 243 241 242 240 239 242 254
255 255 244 225 214 215 217 219 231 235 235 246 266 275 235 219 220 213 166 175 206 228 236 238 241 240 241 239 243 244 243 243 244 238 238 242 240 231 236 236 238 246 252
254 265 256 221 217 220 221 218 226 232 230 224 230 235 200 159 190 209 200 211 221 234 239 241 242 239 236 237 240 244 254 255 251 248 251 247 237 229 233 232 233 238 244
252 261 251 227 221 223 223 229 229 227 226 223 233 231 198 197 208 213 214 219 226 236 241 241 239 235 232 228 226 236 248 257 254 250 251 250 244 239 240 234 232 236 241
244 248 238 234 234 236 236 226 226 227 225 229 245 241 221 222 222 224 229 234 237 237 235 228 231 234 228 226 221 220 231 248 260 258 250 245 243 247 246 237 240 242 234
236 240 255 258 253 262 265 245 232 229 228 229 229 228 226 234 237 232 237 243 241 241 233 223 225 231 225 221 218 216 222 238 250 247 242 244 246 245 241 237 236 237 240
219 231 242 257 262 263 264 260 245 237 230 227 226 225 227 232 237 237 237 239 241 243 233 219 216 220 217 214 216 223 229 250 254 246 240 233 237 240 232 231 237 237 236
227 236 247 255 256 259 263 259 254 247 236 230 228 229 230 229 234 238 236 234 232 235 233 218 210 210 208 208 214 224 250 267 274 276 254 232 231 235 232 229 233 232 231
236 242 243 243 244 247 245 245 247 243 241 243 238 233 227 224 226 228 229 229 237 237 236 229 224 214 207 213 221 219 221 242 271 279 254 228 226 235 241 243 236 228 227
Height
1509 1511 1512 1513 1515 1515 1516 1517 1517 1518 1518 1518 1518 1519 1519 1519 1520 1519 1519 1518 1518 1518 1517 1517 1516 1515 1514 1514 1513 1513 1513 1512 1511 1511 1511 1510 1510 1510 1510 1510 1509 1509 1509
1507 1509 1510 1511 1512 1513 1514 1514 1515 1516 1516 1516 1516 1516 1517 1517 1517 1517 1517 1516 1516 1515 1515 1514 1513 1513 1512 1511 1511 1510 1510 1509 1509 1508 1507 1507 1507 1507 1506 1506 1506 1506 1505
1506 1507 1508 1509 1510 1510 1512 1512 1513 1513 1514 1514 1514 1514 1514 1515 1515 1515 1514 1514 1513 1513 1513 1512 1511 1510 1509 1508 1508 1507 1507 1506 1506 1505 1504 1504 1504 1504 1503 1503 1503 1502 1502
1504 1504 1505 1506 1507 1508 1509 1510 1510 1511 1511 1512 1512 1512 1512 1512 1512 1512 1512 1511 1510 1510 1510 1509 1508 1507 1506 1505 1504 1504 1503 1503 1502 1502 1501 1501 1501 1501 1501 1500 1499 1499 1499
1502 1502 1503 1504 1505 1506 1507 1508 1508 1509 1509 1509 1510 1510 1510 1509 1509 1509 1509 1508 1508 1507 1507 1506 1505 1504 1503 1502 1501 1500 1500 1499 1499 1499 1498 1498 1498 1498 1497 1497 1496 1496 1495
1499 1500 1501 1502 1502 1503 1504 1505 1506 1506 1506 1507 1507 1507 1507 1507 1507 1507 1506 1506 1505 1505 1504 1503 1502 1501 1500 1498 1498 1497 1497 1496 1496 1496 1495 1495 1495 1495 1495 1494 1494 1493 1492
1497 1498 1499 1499 1500 1500 1501 1502 1503 1503 1504 1504 1504 1505 1505 1505 1504 1504 1503 1503 1502 1502 1501 1500 1499 1498 1497 1495 1494 1494 1493 1493 1493 1493 1492 1492 1492 1492 1492 1491 1491 1490 1489
1495 1496 1497 1497 1498 1498 1499 1499 1500 1501 1501 1501 1501 1501 1502 1502 1501 1501 1500 1500 1499 1498 1498 1497 1496 1495 1494 1493 1491 1490 1490 1489 1489 1489 1490 1489 1489 1489 1489 1488 1487 1487 1486
1493 1494 1494 1495 1495 1496 1496 1496 1497 1498 1498 1498 1498 1498 1498 1498 1498 1498 1497 1497 1496 1495 1495 1494 1493 1492 1491 1490 1489 1487 1487 1487 1487 1487 1487 1486 1486 1486 1486 1485 1484 1483 1482
1491 1491 1492 1492 1492 1493 1493 1494 1494 1494 1494 1495 1495 1495 1495 1495 1494 1494 1494 1493 1492 1491 1491 1490 1490 1489 1488 1487 1486 1484 1484 1484 1484 1484 1484 1483 1483 1483 1482 1482 1481 1480 1479
1489 1489 1489 1489 1490 1490 1491 1491 1491 1491 1492 1492 1492 1492 1492 1491 1491 1491 1491 1490 1489 1488 1487 1487 1486 1485 1485 1484 1483 1482 1481 1481 1481 1481 1480 1480 1480 1479 1479 1478 1477 1477 1476
1487 1486 1487 1487 1487 1487 1488 1488 1488 1488 1488 1488 1488 1488 1488 1488 1488 1487 1487 1487 1486 1485 1484 1483 1483 1482 1481 1481 1480 1479 1479 1479 1478 1478 1477 1477 1476 1475 1475 1475 1474 1473 1473
1484 1484 1484 1484 1484 1484 1484 1485 1485 1485 1485 1485 1485 1485 1485 1485 1484 1484 1484 1483 1482 1482 1481 1480 1480 1479 1478 1477 1477 1476 1476 1475 1475 1475 1474 1473 1473 1473 1472 1472 1471 1470 1469
1481 1481 1481 1481 1481 1481 1481 1482 1482 1482 1482 1482 1482 1481 1481 1481 1481 1480 1480 1479 1479 1478 1477 1476 1476 1476 1475 1474 1474 1473 1473 1472 1472 1471 1471 1471 1471 1470 1469 1469 1468 1467 1465
1479 1478 1478 1479 1478 1478 1479 1479 1479 1479 1479 1479 1479 1479 1478 1477 1477 1477 1477 1476 1475 1475 1474 1473 1473 1472 1471 1471 1470 1470 1469 1469 1469 1468 1468 1468 1467 1467 1466 1466 1465 1464 1463
1476 1476 1476 1476 1476 1476 1476 1476 1476 1476 1476 1476 1476 1476 1475 1475 1474 1474 1474 1473 1472 1472 1471 1470 1469 1468 1468 1467 1467 1467 1466 1466 1465 1465 1465 1464 1464 1463 1463 1462 1462 1461 1460
1475 1474 1474 1474 1473 1473 1473 1472 1472 1473 1473 1473 1473 1472 1472 1471 1471 1470 1470 1470 1469 1469 1468 1467 1466 1466 1465 1465 1464 1464 1463 1463 1462 1462 1461 1461 1460 1460 1459 1459 1458 1457 1456
1472 1472 1471 1471 1471 1470 1470 1470 1470 1469 1469 1468 1469 1468 1468 1467 1467 1467 1467 1466 1466 1465 1464 1464 1463 1463 1462 1462 1461 1460 1460 1459 1459 1458 1457 1457 1456 1456 1455 1455 1454 1454 1453
1469 1469 1468 1468 1468 1468 1467 1467 1467 1466 1466 1465 1465 1464 1464 1463 1463 1463 1462 1462 1461 1461 1461 1460 1460 1459 1459 1458 1457 1456 1456 1455 1454 1454 1453 1453 1452 1452 1451 1450 1450 1450 1449
1466 1466 1465 1465 1465 1465 1464 1464 1463 1463 1462 1461 1461 1460 1460 1459 1459 1458 1458 1458 1458 1457 1457 1457 1456 1456 1455 1454 1453 1452 1451 1451 1450 1450 1449 1448 1448 1447 1447 1446 1446 1446 1445
1463 1463 1462 1462 1462 1461 1461 1460 1460 1460 1459 1458 1458 1457 1456 1456 1455 1455 1454 1454 1454 1454 1453 1452 1452 1451 1451 1450 1449 1449 1448 1447 1446 1446 1445 1444 1444 1443 1442 1442 1442 1441 1441
1460 1460 1459 1459 1458 1458 1458 1457 1457 1456 1455 1454 1454 1454 1453 1452 1452 1452 1451 1451 1450 1450 1449 1449 1448 1447 1446 1446 1445 1444 1443 1443 1442 1441 1440 1440 1440 1439 1438 1438 1437 1437 1437
1457 1457 1457 1456 1455 1455 1454 1453 1453 1452 1452 1451 1450 1450 1449 1449 1448 1448 1447 1447 1446 1446 1445 1444 1443 1443 1442 1442 1441 1440 1439 1438 1438 1437 1436 1435 1435 1435 1434 1434 1433 1433 1433
1454 1454 1453 1452 1452 1451 1450 1449 1449 1448 1448 1447 1447 1446 1446 1445 1444 1444 1444 1443 1442 1441 1441 1440 1439 1438 1438 1437 1436 1436 1435 1434 1433 1432 1432 1431 1431 1431 1430 1430 1429 1429 1429
1450 1450 1449 1449 1448 1447 1446 1445 1445 1444 1443 1443 1443 1442 1442 1441 1441 1440 1439 1439 1438 1437 1436 1435 1435 1434 1433 1433 1432 1431 1430 1429 1429 1428 1427 1427 1427 1427 1426 1426 1426 1426 1426
1447 1446 1445 1445 1444 1443 1442 1441 1440 1440 1439 1439 1438 1438 1437 1436 1436 1436 1435 1434 1434 1433 1432 1431 1430 1430 1429 1428 1427 1426 1426 1425 1424 1424 1423 1423 1422 1422 1422 1422 1422 1422 1422